Volver al catálogo

PORCUPINE 2

ActivoMilitarPO
NORAD 1577·PAYLOAD·🇺🇸 United States

Lanzado Aug 13, 1965 desde Vandenberg Space Force Base

Loading…

Próximos Pases (próximas 24 horas)

TLE

ActualizadoSource: Space-Track

Época: Sep 14, 2026, 09:07 UTC

1 01577U 65065J   26257.38035473  .00000092  00000-0  16020-3 0  9990
2 01577  90.0367 212.3880 0068563 210.7249 316.1526 13.36268667974567

Sigue PORCUPINE 2 en tiempo real con AllMySat

Download on the App Store